User: anonymous
Location: Unspecified
(0.0000°N, 0.0000°E)
Time: 15:59:37
(UTC+02:00)
Language:

H-2A R/B - Orbit

View from above orbital plane
View from above orbital plane
View from above satellite
View from above satellite

Ground track
Ground track

The orbit data is extracted from the following two-line orbital elements,

1 28932U 06002B   14244.68888204  .00001971  00000-0  20315-3 0  7823
2 28932 098.2931 108.6225 0096729 044.9329 356.2077 14.88111434465961
Epoch (UTC): 01 September 2014 16:31:59
Eccentricity: 0.0096729
inclination: 98.2931°
perigee height: 536 km
apogee height: 671 km
right ascension of ascending node: 108.6225°
argument of perigee: 44.9329°
revolutions per day: 14.88111434
mean anomaly at epoch: 356.2077°
orbit number at epoch: 46596

The dashed part of the orbit path shows where the satellite is in the earth's shadow,  

DLR